FW0266 Weather Reports


Display with metric or nautical units.
time (UTC)temp
F
wind
direction
speed
MPH
gust
MPH
rain 1hr
in
rain 24hr
in
rain mn
in
humidity
%
barometer
mb
20260904211516 91 141 13.0 25.0 0.00 0.00 0.00 27 1007.0
20260904210016 91 139 16.0 27.0 0.00 0.00 0.00 29 1006.9
20260904204514 91 205 17.0 28.0 0.00 0.00 0.00 29 1007.1
20260904203018 90 152 14.0 24.0 0.00 0.00 0.00 31 1007.1
20260904201512 90 155 14.0 25.0 0.00 0.00 0.00 27 1007.3
20260904200015 90 204 12.0 23.0 0.00 0.00 0.00 29 1007.5
20260904194512 89 163 11.0 26.0 0.00 0.00 0.00 30 1007.5
20260904193012 88 124 9.0 22.0 0.00 0.00 0.00 36 1007.4
20260904191509 89 108 9.0 18.0 0.00 0.00 0.00 35 1007.6
20260904190008 87 126 4.0 23.0 0.00 0.00 0.00 38 1007.8
20260904184508 88 113 12.0 22.0 0.00 0.00 0.00 38 1008.0
20260904183006 86 103 11.0 19.0 0.00 0.00 0.00 41 1008.0
20260904181516 87 113 11.0 20.0 0.00 0.00 0.00 40 1008.1
20260904180002 86 115 12.0 24.0 0.00 0.00 0.00 38 1008.1
20260904174603 84 113 12.0 22.0 0.00 0.00 0.00 43 1008.1
20260904173059 84 101 9.0 22.0 0.00 0.00 0.00 44 1008.2
20260904171618 84 133 10.0 22.0 0.00 0.00 0.00 45 1008.4
20260904170055 82 114 9.0 17.0 0.00 0.00 0.00 47 1008.2
20260904164552 82 115 9.0 20.0 0.00 0.00 0.00 48 1008.1
20260904163051 82 146 8.0 17.0 0.00 0.00 0.00 47 1008.2
20260904161548 81 118 7.0 17.0 0.00 0.00 0.00 50 1008.1
20260904160047 80 113 9.0 17.0 0.00 0.00 0.00 49 1008.1
20260904154549 80 110 9.0 17.0 0.00 0.00 0.00 51 1008.1
20260904153041 79 127 13.0 23.0 0.00 0.00 0.00 51 1008.1
20260904151539 79 120 8.0 19.0 0.00 0.00 0.00 51 1008.0
20260904150041 78 88 13.0 19.0 0.00 0.00 0.00 51 1008.0
20260904144536 78 110 9.0 16.0 0.00 0.00 0.00 48 1008.0
20260904143037 77 111 8.0 16.0 0.00 0.00 0.00 45 1008.1
20260904141529 0 0.0 0.0 0.00 0.00 0.00 1007.8
20260904140038 0 0.0 0.0 0.00 0.00 0.00 1007.8
20260904134526 0 0.0 0.0 0.00 0.00 0.00 1007.3
20260904133017 0 0.0 0.0 0.00 0.00 0.00 1007.1
20260904131511 0 0.0 0.0 0.00 0.00 0.00 1007.2
20260904130008 76 135 8.0 14.0 0.00 0.00 0.00 23 1007.0
20260904124510 76 104 5.0 11.0 0.00 0.00 0.00 27 1006.7
20260904123006 76 103 4.0 10.0 0.00 0.00 0.00 32 1006.7
20260904121505 76 105 5.0 10.0 0.00 0.00 0.00 36 1006.7
20260904120004 76 108 3.0 8.0 0.00 0.00 0.00 34 1006.6
20260904114503 76 103 3.0 8.0 0.00 0.00 0.00 33 1006.7
20260904113003 75 101 2.0 5.0 0.00 0.00 0.00 32 1006.7
20260904111501 75 98 1.0 6.0 0.00 0.00 0.00 32 1006.8
20260904110100 75 91 2.0 10.0 0.00 0.00 0.00 32 1006.7
20260904104600 75 107 3.0 9.0 0.00 0.00 0.00 31 1006.6
20260904103058 75 103 3.0 9.0 0.00 0.00 0.00 31 1006.6
20260904103003 75 105 4.0 9.0 0.00 0.00 0.00 31 1006.6
20260904101558 75 96 5.0 10.0 0.00 0.00 0.00 28 1006.7
20260904100058 75 148 4.0 8.0 0.00 0.00 0.00 26 1006.5
20260904094601 76 109 5.0 12.0 0.00 0.00 0.00 25 1006.5
20260904093101 76 127 6.0 11.0 0.00 0.00 0.00 23 1006.4
20260904091555 76 115 7.0 11.0 0.00 0.00 0.00 23 1006.3
20260904090104 76 134 5.0 12.0 0.00 0.00 0.00 25 1006.3
20260904084555 76 108 6.0 14.0 0.00 0.00 0.00 20 1006.2
20260904083056 76 111 6.0 12.0 0.00 0.00 0.00 19 1006.3
20260904081552 74 101 3.0 8.0 0.00 0.00 0.00 20 1006.3
20260904080050 73 100 3.0 8.0 0.00 0.00 0.00 25 1006.5
20260904074549 73 112 1.0 8.0 0.00 0.00 0.00 28 1006.6
20260904073049 74 139 5.0 10.0 0.00 0.00 0.00 22 1006.5
20260904071557 75 129 2.0 7.0 0.00 0.00 0.00 26 1006.4
20260904070042 74 105 2.0 4.0 0.00 0.00 0.00 31 1006.4
20260904064539 75 139 3.0 8.0 0.00 0.00 0.00 32 1006.2
20260904063040 74 136 3.0 5.0 0.00 0.00 0.00 34 1006.2
20260904061539 75 133 1.0 6.0 0.00 0.00 0.00 35 1006.0
20260904060036 76 102 1.0 5.0 0.00 0.00 0.00 35 1005.7
20260904054540 76 75 0.0 3.0 0.00 0.00 0.00 39 1005.8
20260904053030 76 98 1.0 5.0 0.00 0.00 0.00 42 1005.9
20260904051529 77 106 0.0 5.0 0.00 0.00 0.00 42 1005.9
20260904050027 77 116 0.0 4.0 0.00 0.00 0.00 42 1005.9
20260904044530 77 94 1.0 6.0 0.00 0.00 0.00 41 1006.0
20260904043025 78 103 0.0 4.0 0.00 0.00 0.00 40 1006.0
20260904041522 77 98 0.0 3.0 0.00 0.00 0.00 40 1005.9
20260904040024 76 84 0.0 2.0 0.00 0.00 0.00 38 1006.0
20260904034519 76 70 0.0 4.0 0.00 0.00 0.00 37 1005.9
20260904033019 78 102 0.0 5.0 0.00 0.00 0.00 35 1005.9
20260904031517 78 96 0.0 4.0 0.00 0.00 0.00 31 1005.6
20260904030017 80 149 3.0 8.0 0.00 0.00 0.00 28 1005.6
20260904024516 81 163 5.0 10.0 0.00 0.00 0.00 28 1005.5
20260904023018 81 202 9.0 14.0 0.00 0.00 0.00 26 1005.3
20260904021515 82 180 3.0 7.0 0.00 0.00 0.00 30 1005.4
20260904020015 83 133 7.0 15.0 0.00 0.00 0.00 28 1005.4
20260904014522 85 142 9.0 17.0 0.00 0.00 0.00 27 1005.3
20260904013020 86 143 10.0 19.0 0.00 0.00 0.00 25 1005.3
20260904011527 87 143 12.0 23.0 0.00 0.00 0.00 25 1005.3
20260904010013 88 165 13.0 19.0 0.00 0.00 0.00 24 1005.3
20260904004514 88 166 13.0 26.0 0.00 0.00 0.00 23 1005.4
20260904003013 88 202 12.0 25.0 0.00 0.00 0.00 24 1005.4
20260904001510 89 157 12.0 24.0 0.00 0.00 0.00 26 1005.4
20260904000011 89 169 13.0 24.0 0.00 0.00 0.00 25 1005.5
20260903234508 89 174 14.0 24.0 0.00 0.00 0.00 25 1005.5
20260903233005 89 205 13.0 26.0 0.00 0.00 0.00 24 1005.7
20260903231504 89 176 16.0 29.0 0.00 0.00 0.00 23 1006.0
20260903230004 89 155 14.0 26.0 0.00 0.00 0.00 21 1006.0
20260903224501 90 191 17.0 29.0 0.00 0.00 0.00 19 1006.2
20260903223103 90 165 12.0 21.0 0.00 0.00 0.00 17 1006.3
20260903221600 90 176 15.0 26.0 0.00 0.00 0.00 15 1006.5
20260903220107 90 165 18.0 31.0 0.00 0.00 0.00 15 1006.5
20260903214556 90 197 17.0 25.0 0.00 0.00 0.00 17 1006.6
20260903213055 90 151 17.0 27.0 0.00 0.00 0.00 18 1006.7